Regional Weather Roundup
Issued by NWS State College, PA

Home | Current Version | Previous Version | Text Only | Print | Product List | Glossary On
Versions: 1 2 3 4 5 6 7 8 9 10 11 12 13 14 15 16 17 18 19 20 21 22 23 24 25 26 27 28 29 30 31 32 33 34 35 36 37 38 39 40 41 42 43 44 45 46 47 48 49 50
000
ASUS41 KCTP 062303
RWRCTP

REGIONAL WEATHER ROUNDUP
NATIONAL WEATHER SERVICE STATE COLLEGE PA
700 PM EDT WED MAY 06 2015

Note: "fair" indicates few or no clouds below 12,000 feet with no
significant weather and/or obstructions to visibility.

* = STATION THAT DOES NOT REPORT PRECIPITATION /E.G. RAIN...SNOW...ETC/
    THUNDER OR FOG.

PAZ002>004-007>009-013>016-020>023-029>032-070000-
WESTERN PENNSYLVANIA

CITY           SKY/WX    TMP DP  RH WIND       PRES   REMARKS
ERIE           SUNNY     65  54  67 NE9       30.17F
MEADVILLE      SUNNY     71  56  58 VRB6      30.17F
FRANKLIN*      SUNNY     72  55  56 N3        30.18F
NEW CASTLE     FAIR      77  62  59 N6        30.16R
BEAVER COUNTY  LGT RAIN  70  63  78 CALM      30.15S
BUTLER*        PTSUNNY   73  63  68 NW3       30.16F
PITTSBURGH INT PTSUNNY   79  56  45 N12       30.13S
PITTSBURGH     PTSUNNY   78  52  40 N12       30.12S
INDIANA*       MOSUNNY   70  64  83 E8        30.19F
LATROBE        PTSUNNY   73  61  64 E12       30.16R
WASHINGTON CO* SUNNY     81  55  41 NW8       30.15S
$$

PAZ004>006-010>012-017>019-024>028-033>037-041-042-045-046-049>053-070000-
CENTRAL PENNSYLVANIA

CITY           SKY/WX    TMP DP  RH WIND       PRES   REMARKS
BRADFORD       CLOUDY    60  55  83 E5        30.23S
DUBOIS         PTSUNNY   68  57  68 E7        30.19F
CLEARFIELD     CLOUDY    62  56  80 NE7       30.21F
JOHNSTOWN      CLOUDY    62  58  86 E5        30.19S
ALTOONA        CLOUDY    65  62  90 E5        30.20F
STATE COLLEGE  CLOUDY    59  55  88 NE8       30.21F HAZE
WILLIAMSPORT   CLOUDY    61  55  81 SW3       30.22S
SELINSGROVE    PTSUNNY   60  55  83 NE6       30.22F
FT INDIANTOWN  NOT AVBL
CAPITAL CITY   CLOUDY    64  51  62 E8        30.21R
HARRISBURG     LGT RAIN  63  51  65 VRB5      30.19S
YORK           PTSUNNY   68  51  54 NE10      30.18R
$$

PAZ038>040-043-044-047-048-054-055-060>062-067>071-070000-
EASTERN PENNSYLVANIA

CITY           SKY/WX    TMP DP  RH WIND       PRES   REMARKS
SCRANTON       CLOUDY    67  46  47 E3        30.21F
MOUNT POCONO   CLOUDY    60  47  61 SE5       30.24F
ALLENTOWN      CLOUDY    66  46  48 S6        30.23S
QUAKERTOWN*    MOCLDY    63  48  59 E5        30.24S
READING        CLOUDY    63  49  60 NE5       30.22R
LANCASTER      CLOUDY    63  51  65 NE9       30.20S
COATESVILLE    MOCLDY    64  48  55 NE5       30.22S
POTTSTOWN      CLOUDY    61  48  62 NE6       30.23S
BLUE BELL      PTSUNNY   63  50  63 NE6       30.21S
DOYLESTOWN     PTSUNNY   63  47  55 CALM      30.22F
WILLOW GROVE   NOT AVBL
NORTH PHILA    CLOUDY    66  47  50 E12       30.23S
PHILADELPHIA   PTSUNNY   68  48  48 E10       30.20F
$$


USA.gov is the U.S. government's official web portal to all federal, state and local government web resources and services.